SHIJIAN-28 (SJ-28)

Last updated on Tue Sep 22 2026 00:03:16 GMT+0000 (Coordinated Universal Time)

1 66549U 25277A 26264.02058473 -.00000370 00000+0 00000+0 0 9991 2 66549 4.2988 270.6531 0001260 91.7959 121.7481 1.00274539 3116
UTC large
Height (km)
Speed (km/s)
/
Latitude / Longitude
Inclination (degrees)
Orbital Period (minutes)
Azimuth
Elevation
Range (km)
Doppler Factor

Next 0 passes for location: London (51.5072 / 0.1276)

No passes found over London.
SHIJIAN-28 (SJ-28)